Simultaneous Nadir Overpasses (SNOs) Predictions

Prediction of SNOs between GOES-16 and METOP-C Satellite Orbit:

Table of predicted SNOs for the next 14.0 days since TLE Epoch: 7/30/2022
Index Date Time (GOES-16) GOES-16 Lat,Lon METOP-C Lat,Lon Distance(km) Time Diff (sec)
1 07/30/2022 02:19:22 0.01, -75.19 0.77, -71.96 369.57 80
2 07/31/2022 14:35:34 -0.03, -75.21 0.24, -76.52 149.14 80
3 08/01/2022 14:17:34 -0.02, -75.22 -0.83, -71.52 420.69 80
4 08/03/2022 02:33:53 0.02, -75.22 -0.17, -76.12 102.59 80
5 08/04/2022 02:15:53 0.02, -75.23 0.96, -71.13 467.54 80
6 08/05/2022 14:32:05 -0.02, -75.25 0.10, -75.68 50.12 80
7 08/08/2022 02:33:03 -0.00, -75.26 -0.02, -75.28 2.82 80
8 08/10/2022 14:28:36 0.00, -75.30 -0.12, -74.86 50.25 80
9 08/12/2022 02:50:15 -0.00, -75.31 -0.93, -79.45 472.13 80
